Voltar ao catálogo

STARLINK-5878

AtivoComunicaçõesVLEO
NORAD 55955·PAYLOAD·🇺🇸 United States

Lançado Mar 17, 2023 de Vandenberg Space Force Base

Loading…

Próximas Passagens (próximas 24 horas)

TLE

AtualizadoSource: CelesTrak SupGP

Época: Sep 15, 2026, 01:38 UTC

1 55955C 23037AT  26258.06854167  .00029795  00000+0  24971-2 0  2588
2 55955  70.0010 147.0052 0002822 272.0075 294.3684 14.98312454    13

Acompanhe STARLINK-5878 em tempo real com AllMySat

Download on the App Store